Flag for Andorra Weather past 2 weeks in Andorra La Vella, Andorra

Now
75 °F

Passing clouds.


Feels Like: 78 °F
Forecast: 49 / 69 °F
Wind: 12 mph from West

Location: Carcassonne Airport

Current Time: Sep 1, 2015 at 6:10:29 PM

Latest Report: Sep 1, 2015 at 5:30 PM


Visibility: N/A

Pressure: 30.04 "Hg (26.68 "Hg at 1031m altitude)

Humidity: 57%

Dew point: 59 °F

Location of Andorra La VellaLocation

Historic Weather in Andorra La Vella — Graph

°F

Andorra La Vella temperature yesterday

Maximum temperature yesterday: 82 °F (at 1:30 PM)
Minimum temperature yesterday: 64 °F (at 11:00 PM)
Average temperature yesterday: 75 °F

Past Weeks' High & Low Weather Summary

 TemperatureHumidityPressure
High93 °F (Aug 21, 5:00 PM)100% (Aug 28, 10:30 AM)30.18 "Hg (Aug 28, 10:30 AM)
Low52 °F (Aug 25, 7:00 AM)17% (Aug 21, 5:30 PM)29.68 "Hg (Aug 24, 2:30 AM)
Average72 °F69%30.01 "Hg
* Reported Aug 17 5:00 PM — Sep 1 5:00 PM, Andorra La Vella, Weather by CustomWeather, © 2015

Note: Actual official high and low records may vary slightly from our data, if they occured in-between our weather recording intervals... More about our weather records

Advertising

Andorra La Vella weather history for previous 24 hours

 ConditionsComfort  
Time TempWeatherWind HumidityBarometerVisibility
5:00 PM
Tue, Sep 1
77 °FScattered clouds.13 mph57%30.04 "HgN/A
4:30 PM77 °FPassing clouds.17 mph54%30.04 "HgN/A
4:00 PM77 °FPassing clouds.18 mph57%30.07 "HgN/A
3:30 PM77 °FSunny.15 mph57%30.07 "Hg10 mi
3:00 PM77 °FPassing clouds.14 mph57%30.07 "HgN/A
2:30 PM75 °FPassing clouds.16 mph61%30.09 "HgN/A
2:00 PM75 °FPartly sunny.14 mph61%30.09 "HgN/A
1:30 PM73 °FBroken clouds.16 mph65%30.09 "HgN/A
1:00 PM73 °FBroken clouds.16 mph69%30.09 "HgN/A
12:30 PM72 °FPartly sunny.17 mph69%30.09 "HgN/A
12:00 PM70 °FPartly sunny.18 mph78%30.09 "HgN/A
11:30 AM68 °FBroken clouds.14 mph83%30.09 "HgN/A
11:00 AM68 °FPartly sunny.14 mph83%30.09 "HgN/A
10:00 AM66 °FBroken clouds.13 mph88%30.07 "HgN/A
9:30 AM66 °FLight rain. Broken clouds.13 mph88%30.07 "Hg5 mi
9:00 AM66 °FPartly sunny.9 mph88%30.04 "HgN/A
8:30 AM66 °FLight rain. Cloudy.12 mph88%30.04 "HgN/A
8:00 AM66 °FMostly cloudy.9 mph88%30.04 "HgN/A
7:30 AM64 °FMostly cloudy.7 mph94%30.01 "HgN/A
7:00 AM64 °FPassing clouds.3 mph94%30.01 "HgN/A
5:30 AM64 °FMostly cloudy.3 mph94%29.98 "HgN/A
5:00 AM64 °FPassing clouds.3 mph94%29.98 "HgN/A
4:30 AM64 °FOvercast.3 mph94%30.01 "HgN/A
4:00 AM64 °FPassing clouds.5 mph94%30.01 "HgN/A
3:30 AM64 °FLight rain. Mostly cloudy.No wind94%30.01 "HgN/A
3:00 AM64 °FClear.2 mph94%30.01 "Hg10 mi
2:30 AM64 °FClear.2 mph94%30.01 "Hg10 mi
2:00 AM64 °FClear.1 mph94%29.98 "Hg10 mi
1:30 AM64 °FMild.No wind94%29.98 "HgN/A
1:00 AM64 °FPassing clouds.6 mph94%29.98 "HgN/A
11:30 PM
Mon, Aug 31
64 °FLight rain. Passing clouds.8 mph94%30.01 "HgN/A
11:00 PM64 °FThundershowers. Overcast.8 mph94%30.04 "HgN/A
10:30 PM66 °FThunderstorms. Low clouds.8 mph94%30.01 "HgN/A
10:00 PM66 °FStrong thunderstorms. Fog.20 mph94%29.98 "Hg1 mi
9:30 PM75 °FThundershowers. Low clouds.16 mph89%29.89 "HgN/A
9:00 PM75 °FLow clouds.18 mph89%29.86 "HgN/A
8:30 PM75 °FOvercast.18 mph89%29.86 "HgN/A
8:00 PM75 °FOvercast.15 mph89%29.86 "HgN/A
7:30 PM77 °FOvercast.17 mph79%29.89 "HgN/A
7:00 PM77 °FMostly cloudy.22 mph83%29.92 "HgN/A
6:30 PM77 °FOvercast.20 mph83%29.92 "HgN/A
6:00 PM79 °FMostly cloudy.20 mph79%29.92 "HgN/A
Weather by CustomWeather, © 2015

See weather overviewHow to use our weather pages